PAA441 MRLB-MHTG

Flight info

Callsign PAA441
Flight time 0h 43m
Altitude 34000
Route LIB DCT MGA DCT TNT
Aircraft L101/H-SDFGHIRWXY/S

Departure

Time 2026-05-07 20:54
Airport Daniel Oduber Quirós International Airport (MRLB)

Arrival

Time 2026-05-07 21:37
Airport Toncontín Airport (MHTG)
Time Latitude Longitude Altitude Speed Heading
2026-05-07 20:20 10.60027 -85.53453 279 ft 0 kts 340°
2026-05-07 20:45 10.60021 -85.53451 281 ft 4 kts 340°
2026-05-07 20:45 10.59996 -85.53441 284 ft 4 kts 340°
2026-05-07 20:45 10.59975 -85.53433 285 ft 2 kts 340°
2026-05-07 20:45 10.59949 -85.53427 287 ft 4 kts
2026-05-07 20:46 10.59923 -85.53431 283 ft 3 kts 14°
2026-05-07 20:46 10.59918 -85.53432 281 ft 7 kts 15°
2026-05-07 20:47 10.59920 -85.53432 281 ft 1 kts 15°
2026-05-07 20:47 10.59931 -85.53428 285 ft 3 kts 15°
2026-05-07 20:47 10.59955 -85.53422 279 ft 0 kts 15°
2026-05-07 20:49 10.59957 -85.53421 279 ft 0 kts 18°
2026-05-07 20:49 10.59959 -85.53419 279 ft 1 kts 38°
2026-05-07 20:50 10.59959 -85.53415 287 ft 1 kts 67°
2026-05-07 20:50 10.59958 -85.53410 285 ft 1 kts 96°
2026-05-07 20:50 10.59953 -85.53383 280 ft 6 kts 107°
2026-05-07 20:50 10.59910 -85.53339 280 ft 10 kts 152°
2026-05-07 20:51 10.59892 -85.53331 280 ft 4 kts 159°
2026-05-07 20:51 10.59873 -85.53324 280 ft 0 kts 158°
2026-05-07 20:52 10.59866 -85.53321 280 ft 5 kts 157°
2026-05-07 20:52 10.59809 -85.53298 279 ft 13 kts 167°
2026-05-07 20:52 10.59740 -85.53334 278 ft 0 kts 247°
2026-05-07 20:53 10.59740 -85.53335 278 ft 1 kts 247°
2026-05-07 20:53 10.59683 -85.53485 279 ft 53 kts 250°
2026-05-07 20:53 10.59486 -85.54033 277 ft 111 kts 249°
2026-05-07 20:53 10.59157 -85.54935 369 ft 150 kts 252°
2026-05-07 20:54 10.58752 -85.55985 751 ft 177 kts 253°
2026-05-07 20:54 10.58288 -85.57286 1253 ft 216 kts 248°
2026-05-07 20:54 10.57781 -85.58759 1082 ft 227 kts 250°
2026-05-07 20:54 10.57257 -85.60261 948 ft 222 kts 250°
2026-05-07 20:55 10.56502 -85.61588 1173 ft 219 kts 224°
2026-05-07 20:55 10.55181 -85.62321 1531 ft 219 kts 193°
2026-05-07 20:55 10.53674 -85.62399 1907 ft 219 kts 168°
2026-05-07 20:55 10.52344 -85.61653 2266 ft 223 kts 136°
2026-05-07 20:56 10.51593 -85.60297 2631 ft 222 kts 106°
2026-05-07 20:56 10.51464 -85.58744 3011 ft 221 kts 82°
2026-05-07 20:56 10.52095 -85.57353 3373 ft 219 kts 51°
2026-05-07 20:56 10.53347 -85.56523 3714 ft 224 kts 21°
2026-05-07 20:57 10.54902 -85.56318 4133 ft 227 kts
2026-05-07 20:57 10.56487 -85.56370 4524 ft 230 kts
2026-05-07 20:57 10.58091 -85.56496 4899 ft 232 kts 358°
2026-05-07 20:57 10.59703 -85.56645 5253 ft 233 kts 358°
2026-05-07 20:58 10.61326 -85.56801 5619 ft 235 kts 358°
2026-05-07 20:58 10.62957 -85.56962 5978 ft 236 kts 358°
2026-05-07 20:58 10.64606 -85.57123 6356 ft 248 kts 358°
2026-05-07 20:58 10.66410 -85.57292 6709 ft 275 kts 358°
2026-05-07 20:59 10.68334 -85.57716 6904 ft 288 kts 342°
2026-05-07 20:59 10.70137 -85.58628 7165 ft 292 kts 331°
2026-05-07 20:59 10.71838 -85.59762 7487 ft 294 kts 327°
2026-05-07 20:59 10.73507 -85.60980 7838 ft 296 kts 326°
2026-05-07 21:00 10.75201 -85.62176 8192 ft 297 kts 330°
2026-05-07 21:00 10.76991 -85.63237 8571 ft 299 kts 333°
2026-05-07 21:00 10.78824 -85.64242 8940 ft 300 kts 334°
2026-05-07 21:00 10.80651 -85.65214 9303 ft 302 kts 335°
2026-05-07 21:01 10.82519 -85.66197 9690 ft 303 kts 335°
2026-05-07 21:01 10.84399 -85.67175 10032 ft 302 kts 336°
2026-05-07 21:01 10.86339 -85.68012 10368 ft 303 kts 342°
2026-05-07 21:01 10.88344 -85.68716 10708 ft 305 kts 344°
2026-05-07 21:02 10.90380 -85.69366 11065 ft 312 kts 346°
2026-05-07 21:02 10.92532 -85.70022 11408 ft 329 kts 346°
2026-05-07 21:02 10.94748 -85.70683 11746 ft 334 kts 346°
2026-05-07 21:02 10.96992 -85.71345 12099 ft 337 kts 346°
2026-05-07 21:03 10.99218 -85.71995 12464 ft 339 kts 346°
2026-05-07 21:03 11.01494 -85.72660 12841 ft 341 kts 346°
2026-05-07 21:03 11.03755 -85.73447 13197 ft 345 kts 340°
2026-05-07 21:03 11.05965 -85.74419 13585 ft 347 kts 337°
2026-05-07 21:04 11.08162 -85.75476 13929 ft 350 kts 336°
2026-05-07 21:04 11.10358 -85.76559 14267 ft 352 kts 336°
2026-05-07 21:04 11.12575 -85.77612 14609 ft 353 kts 338°
2026-05-07 21:04 11.14828 -85.78629 14952 ft 355 kts 338°
2026-05-07 21:05 11.17073 -85.79614 15306 ft 356 kts 339°
2026-05-07 21:05 11.19358 -85.80595 15654 ft 358 kts 339°
2026-05-07 21:05 11.21657 -85.81568 16011 ft 359 kts 340°
2026-05-07 21:05 11.23975 -85.82535 16378 ft 361 kts 340°
2026-05-07 21:06 11.26312 -85.83499 16742 ft 363 kts 340°
2026-05-07 21:06 11.28655 -85.84455 17103 ft 365 kts 341°
2026-05-07 21:06 11.31032 -85.85416 17475 ft 368 kts 341°
2026-05-07 21:06 11.33426 -85.86375 17865 ft 371 kts 341°
2026-05-07 21:07 11.35809 -85.87323 18231 ft 374 kts 341°
2026-05-07 21:07 11.38243 -85.88285 18563 ft 376 kts 341°
2026-05-07 21:07 11.40686 -85.89245 18898 ft 377 kts 342°
2026-05-07 21:07 11.43146 -85.90207 19239 ft 380 kts 342°
2026-05-07 21:08 11.45627 -85.91173 19583 ft 382 kts 342°
2026-05-07 21:08 11.48113 -85.92137 19930 ft 384 kts 342°
2026-05-07 21:08 11.50614 -85.93104 20278 ft 386 kts 342°
2026-05-07 21:08 11.53132 -85.94075 20625 ft 388 kts 342°
2026-05-07 21:09 11.55662 -85.95050 20985 ft 389 kts 342°
2026-05-07 21:09 11.58173 -85.96016 21354 ft 392 kts 343°
2026-05-07 21:09 11.60731 -85.96998 21719 ft 394 kts 342°
2026-05-07 21:09 11.63309 -85.97988 22086 ft 396 kts 343°
2026-05-07 21:10 11.65897 -85.98980 22466 ft 399 kts 343°
2026-05-07 21:10 11.68494 -85.99975 22915 ft 400 kts 343°
2026-05-07 21:10 11.71113 -86.00978 23389 ft 403 kts 343°
2026-05-07 21:10 11.73749 -86.01987 23781 ft 406 kts 343°
2026-05-07 21:11 11.76397 -86.03001 24167 ft 408 kts 343°
2026-05-07 21:11 11.79068 -86.04024 24573 ft 411 kts 343°
2026-05-07 21:11 11.84414 -86.06073 25487 ft 416 kts 342°
2026-05-07 21:12 11.87129 -86.07113 25965 ft 418 kts 342°
2026-05-07 21:12 11.89868 -86.08163 26459 ft 421 kts 342°
2026-05-07 21:12 11.92609 -86.09214 26959 ft 424 kts 342°
2026-05-07 21:12 11.95391 -86.10281 27452 ft 427 kts 342°
2026-05-07 21:13 11.98176 -86.11350 27969 ft 430 kts 342°
2026-05-07 21:13 12.00997 -86.12433 28496 ft 434 kts 342°
2026-05-07 21:13 12.03832 -86.13524 29023 ft 437 kts 342°
2026-05-07 21:13 12.06691 -86.14629 29575 ft 441 kts 342°
2026-05-07 21:14 12.09572 -86.15748 30094 ft 445 kts 342°
2026-05-07 21:14 12.12447 -86.16857 30570 ft 449 kts 342°
2026-05-07 21:14 12.15372 -86.17979 31060 ft 452 kts 342°
2026-05-07 21:14 12.18320 -86.19136 31551 ft 456 kts 339°
2026-05-07 21:15 12.21218 -86.20493 32058 ft 460 kts 336°
2026-05-07 21:15 12.24050 -86.22049 32579 ft 465 kts 332°
2026-05-07 21:15 12.26807 -86.23792 33104 ft 468 kts 329°
2026-05-07 21:15 12.29535 -86.25643 33540 ft 474 kts 328°
2026-05-07 21:16 12.32272 -86.27541 33725 ft 476 kts 329°
2026-05-07 21:16 12.35085 -86.29332 33802 ft 477 kts 331°
2026-05-07 21:16 12.40853 -86.32571 33835 ft 477 kts 336°
2026-05-07 21:17 12.46923 -86.35439 33841 ft 484 kts 338°
2026-05-07 21:17 12.53153 -86.38191 33839 ft 489 kts 339°
2026-05-07 21:18 12.59426 -86.40903 33840 ft 490 kts 339°
2026-05-07 21:18 12.65731 -86.43601 33848 ft 496 kts 339°
2026-05-07 21:19 12.72114 -86.46326 33846 ft 497 kts 339°
2026-05-07 21:19 12.78486 -86.49098 33854 ft 500 kts 338°
2026-05-07 21:20 12.84873 -86.52076 33854 ft 506 kts 336°
2026-05-07 21:20 12.91241 -86.55130 33830 ft 495 kts 336°
2026-05-07 21:21 12.94279 -86.56602 33407 ft 484 kts 336°
2026-05-07 21:21 12.97297 -86.58070 32920 ft 476 kts 336°
2026-05-07 21:21 13.00239 -86.59577 32455 ft 469 kts 333°
2026-05-07 21:21 13.03023 -86.61214 31964 ft 452 kts 331°
2026-05-07 21:22 13.05653 -86.62859 31506 ft 438 kts 330°
2026-05-07 21:22 13.08221 -86.64500 31025 ft 433 kts 330°
2026-05-07 21:22 13.10770 -86.66131 30563 ft 431 kts 330°
2026-05-07 21:22 13.13311 -86.67752 30106 ft 429 kts 330°
2026-05-07 21:23 13.15836 -86.69354 29599 ft 427 kts 330°
2026-05-07 21:23 13.18331 -86.70927 29071 ft 424 kts 331°
2026-05-07 21:23 13.20835 -86.72498 28592 ft 420 kts 331°
2026-05-07 21:23 13.23323 -86.74053 28069 ft 417 kts 331°
2026-05-07 21:24 13.25792 -86.75589 27573 ft 413 kts 331°
2026-05-07 21:24 13.28241 -86.77106 27069 ft 410 kts 331°
2026-05-07 21:24 13.30670 -86.78607 26606 ft 407 kts 332°
2026-05-07 21:24 13.33087 -86.80096 26115 ft 403 kts 332°
2026-05-07 21:25 13.35487 -86.81573 25660 ft 399 kts 332°
2026-05-07 21:25 13.37829 -86.83011 25213 ft 396 kts 332°
2026-05-07 21:25 13.40184 -86.84455 24763 ft 393 kts 332°
2026-05-07 21:25 13.42519 -86.85886 24334 ft 389 kts 332°
2026-05-07 21:26 13.44838 -86.87307 23800 ft 383 kts 332°
2026-05-07 21:26 13.47102 -86.88694 23205 ft 375 kts 332°
2026-05-07 21:26 13.49314 -86.90049 22579 ft 366 kts 332°
2026-05-07 21:26 13.51475 -86.91371 22025 ft 351 kts 332°
2026-05-07 21:27 13.53511 -86.92620 21360 ft 332 kts 332°
2026-05-07 21:27 13.55451 -86.93808 20714 ft 318 kts 332°
2026-05-07 21:27 13.57288 -86.94933 20137 ft 306 kts 332°
2026-05-07 21:27 13.59086 -86.96033 19568 ft 296 kts 331°
2026-05-07 21:28 13.60835 -86.97102 19006 ft 288 kts 331°
2026-05-07 21:28 13.62534 -86.98141 18492 ft 281 kts 331°
2026-05-07 21:28 13.64186 -86.99151 17996 ft 272 kts 331°
2026-05-07 21:28 13.65798 -87.00137 17347 ft 268 kts 331°
2026-05-07 21:29 13.67391 -87.01111 16708 ft 265 kts 331°
2026-05-07 21:29 13.68963 -87.02073 16095 ft 261 kts 331°
2026-05-07 21:29 13.70497 -87.03011 15507 ft 259 kts 332°
2026-05-07 21:29 13.72036 -87.03953 14927 ft 257 kts 332°
2026-05-07 21:30 13.73545 -87.04880 14460 ft 248 kts 332°
2026-05-07 21:30 13.75017 -87.05783 13923 ft 245 kts 332°
2026-05-07 21:30 13.76475 -87.06676 13349 ft 243 kts 332°
2026-05-07 21:30 13.77917 -87.07561 12784 ft 240 kts 332°
2026-05-07 21:31 13.79224 -87.08616 12170 ft 239 kts 320°
2026-05-07 21:31 13.80478 -87.09718 11598 ft 236 kts 322°
2026-05-07 21:31 13.81701 -87.10801 11064 ft 234 kts 322°
2026-05-07 21:31 13.82928 -87.11889 10548 ft 232 kts 321°
2026-05-07 21:32 13.84146 -87.12963 10041 ft 229 kts 321°
2026-05-07 21:32 13.85361 -87.14008 9517 ft 226 kts 321°
2026-05-07 21:32 13.86568 -87.15028 8977 ft 224 kts 321°
2026-05-07 21:32 13.87769 -87.16045 8441 ft 223 kts 322°
2026-05-07 21:33 13.88902 -87.17099 8006 ft 219 kts 314°
2026-05-07 21:33 13.89862 -87.18253 7777 ft 206 kts 310°
2026-05-07 21:33 13.90718 -87.19374 7737 ft 189 kts 308°
2026-05-07 21:33 13.91470 -87.20379 7745 ft 170 kts 308°
2026-05-07 21:34 13.92146 -87.21287 7821 ft 155 kts 308°
2026-05-07 21:34 13.92849 -87.22235 7999 ft 175 kts 309°
2026-05-07 21:34 13.93597 -87.23255 8002 ft 181 kts 308°
2026-05-07 21:34 13.94409 -87.24361 8006 ft 203 kts 308°
2026-05-07 21:35 13.95398 -87.25276 7891 ft 182 kts 338°
2026-05-07 21:35 13.96619 -87.25453 7275 ft 186 kts
2026-05-07 21:35 13.97902 -87.25187 6499 ft 186 kts 18°
2026-05-07 21:35 13.99057 -87.24706 5980 ft 175 kts 29°
2026-05-07 21:36 14.00134 -87.24192 5505 ft 169 kts 32°
2026-05-07 21:36 14.01149 -87.23624 5013 ft 166 kts 36°
2026-05-07 21:36 14.02183 -87.23123 4555 ft 165 kts 24°
2026-05-07 21:36 14.03278 -87.22755 4105 ft 166 kts 21°
2026-05-07 21:37 14.04351 -87.22348 3629 ft 161 kts 23°
2026-05-07 21:37 14.05358 -87.21981 3331 ft 144 kts 20°
2026-05-07 21:37 14.06133 -87.21704 3270 ft 72 kts 17°
2026-05-07 21:37 14.06424 -87.21601 3273 ft 24 kts 20°
2026-05-07 21:38 14.06515 -87.21569 3272 ft 8 kts 21°
2026-05-07 21:38 14.06580 -87.21572 3271 ft 11 kts 316°
2026-05-07 21:38 14.06585 -87.21625 3271 ft 7 kts 230°
2026-05-07 21:38 14.06547 -87.21645 3272 ft 0 kts 202°
2026-05-07 21:39 14.06531 -87.21652 3271 ft 5 kts 202°
2026-05-07 21:39 14.06488 -87.21668 3270 ft 7 kts 199°
2026-05-07 21:39 14.06430 -87.21690 3271 ft 10 kts 200°
2026-05-07 21:39 14.06364 -87.21710 3272 ft 11 kts 194°
2026-05-07 21:40 14.06297 -87.21732 3276 ft 10 kts 198°
2026-05-07 21:40 14.06227 -87.21756 3267 ft 11 kts 198°
2026-05-07 21:40 14.06196 -87.21767 3265 ft 5 kts 199°
2026-05-07 21:40 14.06156 -87.21781 3268 ft 8 kts 199°
2026-05-07 21:41 14.06099 -87.21801 3269 ft 10 kts 198°
2026-05-07 21:41 14.06080 -87.21807 3271 ft 0 kts 199°
2026-05-07 21:41 14.06077 -87.21808 3270 ft 0 kts 199°
2026-05-07 21:41 14.06072 -87.21810 3270 ft 1 kts 196°
2026-05-07 21:42 14.06059 -87.21813 3273 ft 2 kts 197°
2026-05-07 21:42 14.06042 -87.21820 3273 ft 3 kts 202°
2026-05-07 21:42 14.06021 -87.21829 3276 ft 3 kts 201°
2026-05-07 21:42 14.05997 -87.21838 3275 ft 4 kts 201°
2026-05-07 21:43 14.05982 -87.21847 3276 ft 1 kts 232°
2026-05-07 21:43 14.05981 -87.21851 3276 ft 1 kts 244°
2026-05-07 21:43 14.05979 -87.21862 3273 ft 1 kts 275°
2026-05-07 21:43 14.05983 -87.21864 3278 ft 1 kts 311°
2026-05-07 21:44 14.06003 -87.21876 3275 ft 4 kts 331°
2026-05-07 21:44 14.06014 -87.21882 3275 ft 0 kts 333°